Flag for U.S.A. Weather past 2 weeks in Springfield, Illinois, U.S.A.

Now
73 °F

Clear.


Feels Like: 72 °F
Forecast: 69 / 89 °F
Wind: 6 mph from Southwest

Location: Capital Airport

Current Time: Aug 2, 2015 at 8:04:51 AM

Latest Report: Aug 2, 2015 at 6:52 AM


Visibility: 10 mi

Pressure: 29.92 "Hg

Humidity: 84%

Dew point: 68 °F

Location of SpringfieldLocation

Historic Weather in Springfield — Graph

°F

Springfield temperature yesterday

Maximum temperature yesterday: 87 °F (at 12:52 PM)
Minimum temperature yesterday: 64 °F (at 5:52 AM)
Average temperature yesterday: 77 °F

Past Weeks' High & Low Weather Summary

 TemperatureHumidityPressure
High95 °F (Jul 28, 2:52 PM)94% (Jul 19, 8:52 AM)30.14 "Hg (Jul 19, 8:52 AM)
Low62 °F (Jul 22, 2:56 AM)31% (Aug 1, 12:52 PM)29.76 "Hg (Jul 20, 7:52 PM)
Average78 °F74%29.95 "Hg
* Reported Jul 18 6:52 AM — Aug 2 6:52 AM, Springfield, Weather by CustomWeather, © 2015

Note: Actual official high and low records may vary slightly from our data, if they occured in-between our weather recording intervals... More about our weather records

Advertising

Springfield weather history for previous 24 hours

 ConditionsComfort  
Time TempWeatherWind HumidityBarometerVisibility
6:52 AM
Sun, Aug 2
73 °FClear.6 mph84%29.92 "Hg10 mi
5:52 AM71 °FClear.7 mph87%29.91 "Hg10 mi
4:52 AM72 °FClear.6 mph84%29.91 "Hg10 mi
3:52 AM73 °FClear.8 mph79%29.91 "Hg10 mi
2:52 AM72 °FClear.8 mph78%29.93 "Hg10 mi
1:52 AM72 °FClear.8 mph76%29.94 "Hg10 mi
12:52 AM70 °FClear.5 mph81%29.95 "Hg10 mi
11:52 PM
Sat, Aug 1
70 °FClear.No wind84%29.95 "Hg10 mi
10:52 PM71 °FClear.5 mph81%29.95 "Hg10 mi
9:52 PM72 °FClear.3 mph78%29.95 "Hg10 mi
8:52 PM77 °FSunny.5 mph66%29.94 "Hg10 mi
7:52 PM78 °FSunny.5 mph64%29.95 "Hg10 mi
6:52 PM84 °FSunny.7 mph49%29.96 "Hg10 mi
5:52 PM86 °FSunny.7 mph46%29.96 "Hg10 mi
4:52 PM87 °FSunny.8 mph45%29.97 "Hg10 mi
3:52 PM87 °FSunny.7 mph43%29.98 "Hg10 mi
2:52 PM87 °FSunny.8 mph42%29.99 "Hg10 mi
1:52 PM87 °FSunny.6 mph40%30.00 "Hg10 mi
12:52 PM87 °FSunny.No wind31%30.02 "Hg10 mi
11:52 AM84 °FSunny.5 mph41%30.04 "Hg10 mi
10:52 AM83 °FSunny.3 mph43%30.05 "Hg10 mi
9:52 AM82 °FSunny.3 mph46%30.04 "Hg10 mi
8:52 AM79 °FSunny.No wind54%30.04 "Hg10 mi
Weather by CustomWeather, © 2015

See weather overviewHow to use our weather pages